DW0126 Weather Reports


Display with metric or nautical units.
time (UTC)temp
F
wind
direction
speed
MPH
gust
MPH
rain 1hr
in
rain 24hr
in
rain mn
in
humidity
%
barometer
mb
20260831101736 52 0.0 0.0 0.00 0.00 0.00 87 1014.0
20260831100716 52 0.0 0.0 0.00 0.00 0.00 86 1014.1
20260831095736 52 0.0 0.0 0.00 0.00 0.00 86 1014.2
20260831094716 53 0.0 0.0 0.00 0.00 0.00 85 1014.2
20260831093717 53 0.0 0.0 0.00 0.00 0.00 84 1014.3
20260831092736 53 0.0 0.0 0.00 0.00 0.00 84 1014.5
20260831091716 54 0.0 0.0 0.00 0.00 0.00 84 1014.4
20260831090716 54 0.0 0.0 0.00 0.00 0.00 84 1014.4
20260831085716 53 0.0 0.0 0.00 0.00 0.00 85 1014.4
20260831084716 53 0.0 0.0 0.00 0.00 0.00 86 1014.5
20260831083717 53 0.0 0.0 0.00 0.00 0.00 86 1014.6
20260831082716 53 0.0 0.0 0.00 0.00 0.00 86 1014.7
20260831081716 53 0.0 0.0 0.00 0.00 0.00 85 1014.9
20260831080716 53 0.0 0.0 0.00 0.00 0.00 85 1014.8
20260831075716 53 0.0 0.0 0.00 0.00 0.00 84 1014.8
20260831074716 54 0.0 0.0 0.00 0.00 0.00 85 1014.9
20260831073717 54 0.0 0.0 0.00 0.00 0.00 84 1015.1
20260831072716 54 0.0 0.0 0.00 0.00 0.00 84 1015.2
20260831071736 54 0.0 0.0 0.00 0.00 0.00 84 1015.3
20260831070716 54 0.0 0.0 0.00 0.00 0.00 83 1015.3
20260831065717 55 0.0 0.0 0.00 0.00 0.00 82 1015.4
20260831064717 55 0.0 0.0 0.00 0.00 0.00 82 1015.5
20260831063717 55 0.0 0.0 0.00 0.00 0.00 81 1015.5
20260831062717 56 0.0 0.0 0.00 0.00 0.00 80 1015.6
20260831061737 56 0.0 0.0 0.00 0.00 0.00 80 1015.8
20260831060737 57 0.0 0.0 0.00 0.00 0.00 78 1015.8
20260831055717 57 0.0 0.0 0.00 0.00 0.00 77 1015.8
20260831054717 57 0.0 0.0 0.00 0.00 0.00 78 1015.9
20260831053717 58 0.0 0.0 0.00 0.00 0.00 76 1015.9
20260831052737 59 0.0 0.0 0.00 0.00 0.00 74 1016.1
20260831051717 59 0.0 0.0 0.00 0.00 0.00 76 1016.1
20260831050717 59 0.0 0.0 0.00 0.00 0.00 75 1016.2
20260831045717 59 0.0 0.0 0.00 0.00 0.00 74 1016.2
20260831044717 60 0.0 1.0 0.00 0.00 0.00 73 1016.1
20260831043717 60 0.0 0.0 0.00 0.00 0.00 72 1016.2
20260831042717 61 0.0 0.0 0.00 0.00 0.00 70 1016.3
20260831041717 61 0.0 0.0 0.00 0.00 0.00 71 1016.2
20260831040717 61 0.0 0.0 0.00 0.00 0.00 70 1016.3
20260831035717 62 0.0 0.0 0.00 0.00 0.00 68 1016.2
20260831034717 62 0.0 0.0 0.00 0.00 0.00 68 1016.1
20260831033717 63 0.0 0.0 0.00 0.00 0.00 68 1016.1
20260831032717 65 0.0 0.0 0.00 0.00 0.00 64 1016.2
20260831031757 66 0.0 0.0 0.00 0.00 0.00 61 1016.1
20260831030717 67 0.0 0.0 0.00 0.00 0.00 59 1016.2
20260831025737 69 45 1.0 2.0 0.00 0.00 0.00 54 1016.2
20260831024737 70 45 2.0 4.0 0.00 0.00 0.00 51 1016.2
20260831023717 70 23 2.0 3.0 0.00 0.00 0.00 50 1016.3
20260831022737 71 23 3.0 6.0 0.00 0.00 0.00 49 1016.4
20260831021717 71 23 2.0 3.0 0.00 0.00 0.00 49 1016.5
20260831020717 72 23 4.0 6.0 0.00 0.00 0.00 49 1016.6
20260831015717 72 45 2.0 4.0 0.00 0.00 0.00 49 1016.5
20260831014717 72 45 3.0 5.0 0.00 0.00 0.00 48 1016.6
20260831013717 72 0 4.0 6.0 0.00 0.00 0.00 48 1016.7
20260831012757 73 23 4.0 7.0 0.00 0.00 0.00 48 1016.6
20260831011717 73 45 3.0 5.0 0.00 0.00 0.00 48 1016.8
20260831010717 73 315 3.0 6.0 0.00 0.00 0.00 49 1016.8
20260831005737 73 248 2.0 4.0 0.00 0.00 0.00 49 1016.8
20260831004737 73 315 3.0 6.0 0.00 0.00 0.00 49 1017.1
20260831003717 73 23 3.0 5.0 0.00 0.00 0.00 50 1017.1
20260831002717 73 45 3.0 4.0 0.00 0.00 0.00 50 1017.0
20260831001717 73 23 3.0 6.0 0.00 0.00 0.00 49 1017.2
20260831000717 73 45 2.0 5.0 0.00 0.00 0.00 49 1017.3
20260830235737 72 338 3.0 5.0 0.00 0.00 0.00 49 1017.2
20260830234717 72 23 3.0 5.0 0.00 0.00 0.00 50 1017.4
20260830233717 72 293 1.0 2.0 0.00 0.00 0.00 50 1017.4
20260830232717 72 293 1.0 2.0 0.00 0.00 0.00 50 1017.4
20260830231717 72 293 2.0 3.0 0.00 0.00 0.00 50 1017.6
20260830230717 72 0 3.0 5.0 0.00 0.00 0.00 50 1017.7
20260830225717 72 23 1.0 3.0 0.00 0.00 0.00 49 1017.7
20260830224717 73 315 2.0 5.0 0.00 0.00 0.00 47 1017.8
20260830223757 73 293 1.0 2.0 0.00 0.00 0.00 49 1017.9
20260830222717 73 45 3.0 4.0 0.00 0.00 0.00 49 1018.0
20260830221717 73 68 2.0 4.0 0.00 0.00 0.00 48 1018.2
20260830220717 74 293 5.0 7.0 0.00 0.00 0.00 47 1018.4
20260830215717 73 315 3.0 4.0 0.00 0.00 0.00 48 1018.4
20260830214717 73 293 1.0 2.0 0.00 0.00 0.00 49 1018.6
20260830213717 73 23 3.0 5.0 0.00 0.00 0.00 50 1018.7
20260830212737 73 293 3.0 5.0 0.00 0.00 0.00 49 1018.8
20260830211717 74 293 4.0 7.0 0.00 0.00 0.00 48 1019.0
20260830210717 73 248 3.0 5.0 0.00 0.00 0.00 51 1018.9
20260830205737 71 203 2.0 5.0 0.00 0.00 0.00 51 1018.9
20260830204717 72 248 1.0 2.0 0.00 0.00 0.00 50 1019.1
20260830203717 71 225 4.0 7.0 0.00 0.00 0.00 54 1019.1
20260830202717 70 45 1.0 6.0 0.00 0.00 0.00 56 1019.2
20260830201717 70 90 1.0 2.0 0.00 0.00 0.00 56 1019.2
20260830200717 71 0 1.0 3.0 0.00 0.00 0.00 54 1019.4
20260830195717 69 0.0 0.0 0.00 0.00 0.00 55 1019.3
20260830194717 69 0.0 0.0 0.00 0.00 0.00 55 1019.4
20260830193717 67 0.0 0.0 0.00 0.00 0.00 60 1019.4
20260830192717 67 293 3.0 6.0 0.00 0.00 0.00 61 1019.5
20260830191717 67 0.0 3.0 0.00 0.00 0.00 61 1019.6
20260830190717 68 315 2.0 5.0 0.00 0.00 0.00 59 1019.6
20260830185717 68 0.0 1.0 0.00 0.00 0.00 60 1019.6
20260830184737 67 180 2.0 4.0 0.00 0.00 0.00 63 1019.7
20260830183717 66 23 3.0 4.0 0.00 0.00 0.00 65 1019.7
20260830182717 65 68 1.0 3.0 0.00 0.00 0.00 67 1019.7
20260830181737 64 68 1.0 4.0 0.00 0.00 0.00 68 1019.9
20260830180717 63 0.0 0.0 0.00 0.00 0.00 71 1019.9
20260830175717 62 158 1.0 4.0 0.00 0.00 0.00 72 1019.9
20260830174737 63 270 2.0 5.0 0.00 0.00 0.00 74 1019.9
20260830173717 62 293 2.0 4.0 0.00 0.00 0.00 76 1019.9
20260830172717 60 225 3.0 5.0 0.00 0.00 0.00 79 1019.9
20260830171717 59 0.0 0.0 0.00 0.00 0.00 83 1019.7
20260830170717 59 203 1.0 4.0 0.00 0.00 0.00 84 1019.6
20260830165717 58 248 4.0 6.0 0.00 0.00 0.00 86 1019.7
20260830164717 58 248 2.0 4.0 0.00 0.00 0.00 86 1019.7
20260830163717 57 225 2.0 3.0 0.00 0.00 0.00 86 1019.8
20260830162717 57 203 1.0 2.0 0.00 0.00 0.00 87 1019.8
20260830161717 57 248 2.0 2.0 0.00 0.00 0.00 87 1019.7
20260830160737 57 225 1.0 2.0 0.00 0.00 0.00 87 1020.0
20260830155717 57 248 3.0 5.0 0.00 0.00 0.00 88 1020.0
20260830154717 57 248 3.0 5.0 0.00 0.00 0.00 88 1020.0
20260830153737 57 225 3.0 5.0 0.00 0.00 0.00 89 1020.0
20260830152717 57 0.0 2.0 0.00 0.00 0.00 90 1020.0
20260830151717 56 225 1.0 1.0 0.00 0.00 0.00 91 1019.9
20260830150757 55 248 1.0 3.0 0.00 0.00 0.00 91 1019.9
20260830145716 55 248 3.0 4.0 0.00 0.00 0.00 91 1019.8
20260830144717 55 225 2.0 4.0 0.00 0.00 0.00 91 1019.9
20260830143716 55 225 3.0 3.0 0.00 0.00 0.00 91 1020.0
20260830142717 55 293 1.0 3.0 0.00 0.00 0.00 91 1019.8
20260830141717 55 270 1.0 2.0 0.00 0.00 0.00 91 1019.6
20260830140737 55 293 2.0 3.0 0.00 0.00 0.00 91 1019.4
20260830135717 54 248 2.0 3.0 0.00 0.00 0.00 91 1019.4
20260830134717 55 225 2.0 3.0 0.00 0.00 0.00 91 1019.3
20260830133737 55 248 2.0 4.0 0.00 0.00 0.00 91 1019.3
20260830132717 55 248 2.0 3.0 0.00 0.01 0.00 91 1019.3
20260830131737 55 248 2.0 3.0 0.00 0.01 0.00 91 1019.3
20260830130716 55 203 2.0 3.0 0.00 0.02 0.00 91 1019.4
20260830125717 55 270 1.0 2.0 0.00 0.03 0.00 92 1019.4
20260830124717 55 293 1.0 2.0 0.00 0.03 0.00 91 1019.4
20260830123717 55 225 2.0 3.0 0.00 0.04 0.00 91 1019.4
20260830122717 54 248 2.0 3.0 0.00 0.04 0.00 92 1019.5
20260830121737 54 0.0 2.0 0.00 0.05 0.00 91 1019.5
20260830120717 54 225 1.0 2.0 0.00 0.05 0.00 92 1019.5
20260830115717 54 0.0 0.0 0.00 0.05 0.00 91 1019.6
20260830114716 53 0.0 0.0 0.00 0.06 0.00 91 1019.5
20260830113717 53 0.0 1.0 0.00 0.06 0.00 91 1019.4
20260830112717 53 0.0 1.0 0.00 0.06 0.00 91 1019.3
20260830111737 53 0.0 0.0 0.00 0.06 0.00 91 1019.3
20260830110716 53 0.0 0.0 0.00 0.06 0.00 90 1019.3
20260830105717 53 0.0 0.0 0.00 0.06 0.00 90 1019.3
20260830104736 53 0.0 0.0 0.00 0.06 0.00 90 1019.3
20260830103717 53 0.0 0.0 0.00 0.06 0.00 90 1019.3
20260830102737 53 0.0 0.0 0.00 0.06 0.00 90 1019.3